Wind_Speed
18 18 17 17 17 16 16 15 14 14 14 13 13 13 12 12 11 11 10 10 10 10 10 9 9 9 9 9 8 8 7 7 7 7 7 7 7 7 7 7 7 7 7
20 19 19 19 19 17 17 17 16 15 15 15 15 15 14 14 13 13 12 12 12 12 11 11 11 11 11 11 10 10 10 9 9 9 9 9 9 8 8 9 9 8 8
21 21 21 20 20 20 19 18 17 17 17 17 16 16 16 15 15 15 14 14 14 14 13 13 13 13 13 12 12 12 12 11 11 11 11 11 10 10 10 10 10 10 10
23 22 22 21 21 21 20 19 19 18 18 18 18 18 18 18 17 17 16 16 16 15 15 15 15 15 15 14 14 14 14 13 13 13 13 13 12 12 12 11 11 11 11
25 24 24 23 23 22 22 21 21 21 21 20 20 20 19 19 19 19 18 18 18 17 17 16 16 17 17 16 16 16 16 16 15 15 15 14 14 14 13 13 13 12 13
26 25 25 25 24 23 22 23 22 22 22 22 22 22 21 21 20 20 20 20 20 19 19 18 19 19 19 18 18 18 18 18 18 18 17 17 16 16 15 15 14 14 14
27 27 27 26 26 24 24 24 24 24 24 24 24 23 23 23 22 22 22 22 21 21 20 20 20 20 20 20 20 20 20 20 20 20 19 19 19 18 18 18 17 17 17
29 29 29 28 28 27 26 26 26 25 25 25 25 25 25 25 24 24 24 23 23 23 23 22 22 22 22 22 22 22 22 22 22 22 22 22 22 21 21 21 21 20 20
31 30 30 30 30 29 29 28 27 27 27 27 27 27 27 27 27 26 26 26 25 25 24 24 24 24 24 24 24 24 24 24 24 24 23 23 23 23 23 23 23 23 22
33 32 32 32 32 31 30 30 30 30 29 29 29 29 29 29 29 28 28 28 28 27 27 27 26 26 26 26 26 26 26 26 26 26 26 26 26 26 26 26 26 25 25
34 34 34 34 34 34 33 33 32 32 31 31 31 31 31 31 30 30 30 30 29 29 29 29 28 28 28 28 28 28 28 29 29 29 29 28 28 28 28 28 28 28 28
36 36 36 36 36 36 35 35 35 34 34 33 33 33 32 32 32 32 32 32 32 31 31 31 30 30 30 30 30 31 31 31 31 31 31 31 31 30 30 30 30 30 30
38 37 37 37 38 38 37 37 37 36 36 35 35 35 34 34 34 34 34 33 33 33 33 33 32 32 32 33 33 33 33 34 34 33 33 33 33 33 33 33 33 33 33
39 39 39 38 38 39 39 39 38 38 38 37 37 37 36 37 37 36 36 36 35 35 35 35 35 35 35 35 35 35 35 36 36 37 36 35 35 35 34 34 35 35 35
41 40 41 40 40 40 40 40 40 41 40 40 40 39 39 39 39 38 38 38 38 38 37 37 37 37 37 37 37 37 37 38 38 39 38 38 38 37 37 37 37 37 37
41 41 41 41 41 41 42 42 42 42 42 43 42 42 42 41 41 40 40 40 40 40 40 40 40 40 40 40 40 40 40 40 40 40 40 40 40 40 40 40 40 39 39
40 40 41 42 42 43 43 44 44 43 44 44 44 44 44 44 44 43 43 43 42 42 42 42 42 42 42 42 42 42 42 42 42 42 42 42 42 42 42 42 42 42 41
39 40 40 41 42 42 43 44 45 45 45 45 45 45 45 45 45 45 45 45 45 44 43 44 44 44 44 43 43 43 43 43 44 44 44 44 44 44 44 44 44 43 43
39 39 40 40 41 41 42 43 44 45 46 46 47 47 47 47 47 47 47 46 46 46 46 46 46 46 45 45 44 44 44 45 45 46 46 46 46 46 46 45 45 46 46
40 40 40 40 40 41 42 43 44 44 45 46 47 48 47 47 47 47 48 47 47 47 47 47 47 47 47 46 46 46 46 46 47 48 48 47 47 48 47 47 48 48 48
40 41 41 41 41 41 42 43 44 45 46 47 47 47 47 48 48 48 48 47 48 48 48 48 48 48 48 48 48 48 48 49 49 49 49 49 49 49 50 50 50 50 50
40 40 41 41 42 43 43 43 44 45 46 46 46 47 47 47 47 48 49 49 48 48 48 49 49 49 49 49 50 50 50 51 50 50 50 51 51 51 51 51 51 51 51
39 40 41 41 42 43 44 44 44 44 45 46 46 47 47 47 48 48 49 49 49 49 49 50 50 51 51 51 51 51 51 51 51 51 51 52 51 51 51 51 51 51 52
39 40 41 41 42 43 43 44 44 44 45 45 46 47 47 48 48 48 48 49 49 49 50 51 51 51 51 51 51 51 51 51 51 51 51 52 52 51 51 51 51 51 51
39 40 40 40 41 42 43 43 44 44 44 45 45 46 47 48 48 48 48 49 49 50 50 50 51 51 51 51 51 51 51 51 51 51 50 51 51 51 51 51 50 50 51
39 39 40 39 39 40 41 42 43 44 44 44 45 46 47 47 47 48 48 48 48 49 49 49 50 50 51 51 51 51 51 50 49 49 49 49 50 50 50 50 50 50 50
Wind_Direction
242 243 242 241 240 240 237 236 237 237 237 237 236 236 237 235 236 237 237 236 234 236 242 244 243 243 242 244 245 246 248 248 247 247 247 248 249 250 254 254 253 254 256
243 244 244 243 243 242 242 237 237 239 239 239 239 239 240 241 242 243 242 242 242 242 244 246 246 247 249 249 249 249 249 250 250 250 251 251 252 254 257 258 259 259 259
244 245 245 245 245 244 242 239 239 240 242 242 242 242 242 243 244 245 245 246 246 247 248 249 249 249 251 251 250 251 250 250 251 252 253 252 254 256 258 260 261 260 262
244 245 245 245 245 245 245 242 241 241 242 243 244 245 246 246 247 246 247 248 248 248 249 250 250 251 253 252 252 252 253 253 253 252 252 253 254 257 258 259 260 260 263
245 245 245 246 246 246 244 243 242 243 243 244 246 247 248 249 249 248 247 249 251 250 250 251 251 252 253 255 255 254 254 254 254 254 253 254 254 256 257 258 258 260 263
246 246 246 247 247 245 245 245 245 244 244 245 247 248 249 249 250 250 249 250 252 252 252 253 254 254 255 256 256 255 255 255 254 254 253 253 255 256 257 256 256 259 262
246 246 246 247 247 247 247 246 247 246 247 247 248 249 249 249 250 251 251 252 253 254 254 254 255 255 256 257 256 256 256 256 254 253 254 255 256 257 258 258 258 260 262
247 247 247 247 247 248 249 249 248 248 249 250 250 250 250 251 252 252 252 252 253 255 255 255 256 257 257 257 257 257 257 257 255 254 255 257 257 257 259 259 260 262 263
248 248 248 249 249 249 249 249 250 250 251 251 252 252 252 253 253 253 253 253 253 255 256 257 258 257 258 258 258 257 257 258 258 256 256 257 258 259 259 260 262 263 264
249 249 249 249 249 249 250 251 251 252 252 253 254 254 254 254 254 253 254 255 255 256 257 258 258 258 257 258 259 259 259 259 259 259 258 259 260 261 261 261 262 263 264
248 249 249 249 250 250 250 251 252 252 253 254 254 254 254 254 255 255 255 255 256 257 258 259 259 258 257 258 258 259 260 261 260 260 260 259 261 262 262 262 262 263 264
248 248 249 249 249 250 250 251 252 252 253 254 254 254 255 255 256 256 256 257 257 257 258 259 259 259 258 259 259 260 261 261 261 260 261 261 261 262 262 262 262 262 263
248 248 249 250 250 251 251 252 252 253 253 253 254 254 255 255 255 256 257 258 258 258 258 259 260 260 260 260 260 260 261 261 261 260 261 261 261 262 263 263 263 264 264
249 250 250 251 251 251 252 252 253 253 253 253 253 254 255 255 255 256 257 257 258 259 259 260 260 261 261 261 261 261 261 261 261 261 261 262 262 262 263 263 264 265 265
249 249 249 250 251 252 252 252 252 252 253 253 253 254 255 256 256 256 257 258 258 259 260 260 261 262 262 262 262 263 263 262 261 261 262 262 261 262 262 263 264 265 266
249 249 250 250 251 252 253 253 253 254 253 254 254 255 255 257 257 258 258 258 259 260 260 261 261 262 263 264 264 264 264 263 262 262 262 263 262 263 263 263 264 266 267
250 250 250 251 252 253 253 254 255 255 255 255 255 256 256 257 258 258 259 259 260 260 261 262 262 263 263 264 264 265 265 264 262 262 263 263 264 264 263 264 265 266 266
251 252 252 252 252 253 254 254 255 255 255 256 256 257 257 258 258 259 259 260 260 261 262 263 263 263 264 264 264 265 265 264 263 262 263 264 264 264 264 264 265 266 266
251 252 253 254 254 254 254 255 256 256 256 257 257 258 258 259 259 259 260 260 261 261 262 262 263 264 264 265 265 265 265 265 264 263 262 263 264 264 264 265 265 266 267
251 252 254 255 256 257 256 256 257 257 258 258 257 258 259 260 260 260 260 260 261 261 261 262 263 264 265 266 266 265 265 265 265 264 264 264 264 264 265 266 266 266 267
253 253 254 255 258 258 258 258 258 258 258 259 259 259 259 259 260 260 260 260 260 262 262 263 264 264 264 265 265 266 265 265 266 265 264 264 265 266 266 267 267 267 267
253 254 255 257 258 259 259 259 259 259 259 259 260 260 260 260 260 260 261 260 261 261 263 263 264 264 265 265 265 266 266 266 265 265 265 265 267 268 267 267 267 267 267
254 256 257 257 258 259 259 259 259 260 260 260 260 259 260 260 260 261 262 261 262 262 263 264 264 264 264 265 266 266 266 266 265 265 266 266 267 268 267 267 267 267 268
255 256 257 259 259 260 259 259 260 260 260 260 260 260 259 260 260 262 261 261 262 263 264 265 265 265 265 265 266 266 266 267 266 265 266 266 267 267 267 267 268 268 268
257 257 258 260 261 260 260 260 260 260 260 260 260 260 261 260 261 262 262 262 263 264 265 265 265 265 266 266 266 266 265 266 267 267 266 265 265 266 267 267 268 268 269
258 258 258 261 261 261 261 261 261 261 261 261 261 262 262 261 261 262 262 263 264 265 265 265 265 265 265 266 266 265 266 266 266 266 265 264 264 265 267 268 269 269 269
Height
5841 5842 5842 5843 5844 5844 5845 5846 5847 5847 5848 5849 5849 5850 5850 5851 5851 5852 5852 5853 5853 5853 5853 5854 5854 5854 5855 5855 5856 5856 5857 5857 5857 5857 5857 5857 5857 5857 5857 5857 5857 5857 5857
5838 5838 5839 5840 5841 5841 5842 5843 5844 5845 5845 5846 5847 5847 5848 5848 5849 5850 5850 5850 5851 5851 5851 5852 5852 5852 5853 5853 5854 5854 5855 5855 5855 5855 5855 5855 5855 5855 5855 5855 5855 5855 5855
5834 5835 5835 5836 5837 5838 5839 5839 5840 5841 5842 5843 5844 5845 5845 5846 5846 5847 5847 5848 5848 5849 5849 5850 5850 5850 5851 5851 5851 5852 5852 5853 5853 5853 5853 5853 5853 5853 5854 5854 5853 5853 5853
5830 5831 5832 5833 5834 5834 5835 5836 5837 5838 5839 5840 5841 5842 5842 5843 5843 5844 5844 5845 5845 5846 5846 5847 5847 5847 5848 5848 5849 5849 5850 5850 5850 5850 5851 5851 5851 5851 5851 5851 5851 5851 5851
5825 5826 5827 5829 5830 5830 5831 5832 5833 5834 5835 5836 5837 5838 5839 5839 5840 5840 5841 5841 5842 5842 5843 5844 5844 5844 5845 5845 5845 5846 5846 5847 5847 5847 5848 5848 5848 5848 5848 5848 5848 5848 5848
5820 5822 5823 5824 5825 5826 5827 5828 5829 5830 5831 5832 5833 5834 5835 5836 5836 5837 5837 5838 5838 5839 5839 5840 5840 5841 5841 5842 5842 5842 5843 5843 5844 5844 5844 5844 5845 5845 5845 5845 5845 5845 5845
5815 5817 5818 5819 5820 5821 5822 5824 5825 5826 5827 5828 5829 5830 5830 5831 5832 5833 5833 5833 5834 5835 5835 5836 5836 5837 5837 5838 5838 5839 5839 5839 5840 5840 5840 5841 5841 5841 5841 5842 5842 5842 5842
5810 5811 5813 5814 5815 5817 5818 5819 5820 5821 5821 5823 5824 5824 5826 5827 5827 5828 5829 5829 5830 5830 5831 5831 5832 5833 5833 5833 5834 5834 5835 5835 5835 5836 5836 5836 5837 5837 5837 5838 5838 5838 5838
5803 5805 5807 5808 5810 5811 5812 5813 5814 5815 5816 5817 5818 5819 5820 5821 5822 5823 5824 5824 5825 5825 5826 5826 5827 5828 5828 5829 5829 5829 5830 5830 5830 5831 5831 5832 5832 5832 5833 5833 5833 5833 5833
5797 5798 5800 5802 5803 5804 5806 5807 5808 5809 5810 5811 5812 5814 5814 5815 5816 5817 5818 5819 5820 5820 5821 5821 5822 5822 5823 5823 5824 5824 5824 5824 5825 5825 5826 5826 5826 5827 5827 5827 5828 5828 5828
5790 5791 5793 5795 5796 5797 5799 5800 5802 5803 5804 5805 5806 5807 5808 5809 5810 5811 5812 5813 5814 5814 5815 5815 5816 5816 5817 5817 5817 5818 5818 5818 5819 5819 5820 5820 5820 5821 5821 5821 5822 5822 5822
5782 5784 5786 5787 5789 5790 5791 5793 5794 5796 5797 5798 5799 5800 5801 5802 5803 5804 5805 5806 5807 5808 5808 5809 5809 5810 5810 5810 5811 5811 5811 5812 5812 5812 5813 5813 5814 5814 5814 5815 5815 5815 5815
5774 5776 5778 5779 5781 5782 5784 5785 5787 5788 5789 5791 5792 5793 5794 5795 5796 5797 5798 5799 5800 5801 5801 5802 5802 5802 5803 5803 5804 5804 5804 5804 5805 5805 5806 5806 5806 5807 5807 5807 5808 5808 5808
5766 5768 5769 5771 5773 5774 5775 5777 5779 5780 5781 5783 5784 5785 5786 5787 5788 5789 5790 5791 5792 5793 5794 5794 5795 5795 5795 5795 5796 5796 5796 5796 5797 5797 5798 5798 5798 5799 5799 5799 5800 5800 5800
5757 5758 5760 5762 5764 5765 5767 5768 5770 5771 5773 5774 5775 5777 5778 5779 5780 5781 5782 5783 5784 5785 5786 5786 5786 5787 5787 5787 5787 5788 5788 5788 5788 5788 5789 5790 5790 5790 5791 5791 5791 5792 5792
5747 5749 5751 5753 5755 5756 5758 5759 5761 5762 5763 5765 5766 5768 5769 5770 5771 5772 5773 5774 5775 5776 5777 5777 5777 5778 5778 5778 5778 5778 5779 5779 5779 5779 5780 5780 5781 5781 5781 5782 5782 5783 5783
5737 5739 5741 5743 5745 5747 5748 5750 5751 5753 5754 5755 5757 5758 5759 5760 5762 5763 5764 5765 5766 5766 5767 5767 5768 5768 5768 5768 5768 5769 5769 5769 5769 5769 5770 5770 5771 5771 5771 5772 5772 5773 5773
5728 5730 5731 5733 5735 5737 5738 5740 5741 5742 5744 5745 5746 5747 5749 5750 5751 5752 5753 5754 5755 5756 5757 5757 5758 5758 5758 5758 5758 5758 5759 5758 5759 5759 5759 5759 5760 5761 5761 5761 5762 5762 5762
5718 5720 5722 5724 5725 5727 5728 5729 5731 5732 5732 5734 5736 5737 5738 5739 5740 5741 5743 5744 5745 5746 5746 5747 5747 5747 5747 5748 5747 5747 5748 5748 5748 5748 5748 5748 5749 5749 5750 5750 5750 5751 5751
5709 5711 5712 5714 5715 5717 5718 5719 5720 5721 5722 5723 5724 5725 5726 5728 5729 5730 5731 5732 5733 5734 5735 5735 5736 5736 5736 5736 5736 5736 5736 5736 5736 5736 5736 5736 5737 5737 5737 5738 5738 5739 5739
5699 5701 5702 5704 5705 5706 5707 5708 5709 5710 5711 5712 5712 5713 5715 5716 5717 5718 5719 5721 5722 5723 5723 5724 5724 5724 5724 5724 5724 5725 5725 5724 5724 5724 5724 5724 5724 5724 5725 5725 5725 5726 5726
5689 5690 5692 5693 5694 5695 5696 5697 5698 5699 5700 5700 5701 5702 5703 5704 5705 5706 5708 5709 5710 5710 5711 5711 5711 5711 5712 5711 5711 5711 5712 5713 5712 5711 5711 5711 5711 5711 5711 5711 5712 5712 5712
5679 5680 5681 5682 5683 5684 5685 5686 5687 5688 5688 5689 5689 5690 5691 5692 5694 5695 5695 5696 5697 5698 5699 5698 5698 5699 5699 5698 5698 5698 5698 5699 5699 5699 5698 5698 5698 5698 5698 5698 5698 5698 5698
5668 5669 5670 5671 5672 5673 5674 5675 5676 5677 5677 5677 5678 5678 5679 5680 5681 5682 5683 5684 5684 5685 5685 5685 5685 5685 5685 5685 5685 5684 5684 5684 5685 5686 5686 5685 5684 5684 5684 5685 5685 5685 5685
5657 5658 5659 5659 5661 5662 5663 5664 5665 5665 5666 5666 5666 5667 5668 5668 5669 5670 5670 5671 5672 5672 5672 5672 5672 5672 5672 5672 5672 5671 5671 5671 5671 5671 5673 5672 5671 5671 5671 5671 5671 5672 5672
5647 5647 5648 5649 5650 5651 5651 5652 5653 5654 5654 5655 5655 5655 5656 5657 5657 5658 5658 5659 5659 5659 5659 5659 5658 5658 5659 5659 5659 5658 5658 5658 5658 5658 5659 5659 5659 5659 5658 5658 5659 5659 5658